Weather History for Marysville, OH

Change the Weather History Date:

Friday, July 26, 2013

  Actual Average (KDLZ) Record (KDLZ)
Temperature  
Mean Temperature 64 °F -  
Max Temperature 77 °F 84 °F 99 °F (1941)
Min Temperature 51 °F 61 °F 49 °F (1946)
Degree Days  
Heating Degree Days 1    
Growing Degree Days 14 (Base 50)    
Moisture  
Dew Point 55 °F    
Average Humidity 72    
Maximum Humidity 94    
Minimum Humidity 46    
Precipitation  
Precipitation 0.00 in - - ()
Sea Level Pressure  
Sea Level Pressure 30.07 in    
Wind  
Wind Speed 2 mph (SSW)    
Max Wind Speed 10 mph    
Max Gust Speed -    
Visibility 9 miles    
Events      
Averages and records for this station are not official NWS values.
T = Trace of Precipitation, MM = Missing Value Source: NWS Daily Summary

Daily Weather History Graph

Daily Weather History Graph

Search for Another Location

Airport:

Trip Planner

Search our weather history database for the weather conditions in past years. The results will help you decide how hot, cold, wet, or windy it might be!

Date:

Astronomy

Jul. 26, 2013 Rise Set
Actual Time 6:25 AM EDT 8:53 PM EDT
Civil Twilight 5:54 AM EDT 9:24 PM EDT
Nautical Twilight 5:16 AM EDT 10:02 PM EDT
Astronomical Twilight 4:33 AM EDT 10:45 PM EDT
Moon 11:06 PM EDT (7/26) 11:01 AM EDT (7/26)
Length of Visible Light 15h 29m
Length of Day
14h 27m
Waning Gibbous, 80% of the Moon is Illuminated
Jul 26
Waning Gibbous
Jul 29
Last Quarter
Aug 6
New
Aug 14
First Quarter
Aug 20
Full

Hourly Weather History & Observations

Time (EDT) Temp. Dew Point Humidity Pressure Visibility Wind Dir Wind Speed Gust Speed Precip Events Conditions
12:14 AM 57.7 °F 53.1 °F 84% 30.12 in 10.0 mi Calm Calm - N/A   Clear
12:33 AM 56.1 °F 52.3 °F 87% 30.12 in 10.0 mi Calm Calm - N/A   Clear
12:53 AM 55.8 °F 52.2 °F 88% 30.12 in 10.0 mi Calm Calm - N/A   Clear
1:14 AM 55.8 °F 53.1 °F 91% 30.12 in 10.0 mi Calm Calm - N/A   Clear
1:33 AM 54.3 °F 51.8 °F 91% 30.12 in 10.0 mi Calm Calm - N/A   Clear
1:53 AM 54.5 °F 51.8 °F 91% 30.12 in 10.0 mi Calm Calm - N/A   Clear
2:14 AM 53.8 °F 51.4 °F 92% 30.12 in 10.0 mi Calm Calm - N/A   Clear
2:33 AM 53.8 °F 51.6 °F 92% 30.11 in 10.0 mi Calm Calm - N/A   Clear
2:53 AM 53.8 °F 51.6 °F 92% 30.11 in 10.0 mi Calm Calm - N/A   Clear
3:14 AM 53.2 °F 51.1 °F 92% 30.09 in 10.0 mi Calm Calm - N/A   Clear
3:33 AM 53.6 °F 51.6 °F 93% 30.09 in 10.0 mi Calm Calm - N/A   Clear
3:53 AM 54.1 °F 52.0 °F 92% 30.10 in 10.0 mi Calm Calm - N/A   Clear
4:14 AM 53.6 °F 51.4 °F 92% 30.09 in 10.0 mi Calm Calm - N/A   Clear
4:33 AM 54.7 °F 52.5 °F 92% 30.09 in 10.0 mi Calm Calm - N/A   Clear
4:53 AM 51.8 °F 49.5 °F 92% 30.08 in 7.0 mi Calm Calm - N/A   Clear
5:14 AM 51.8 °F 50.0 °F 94% 30.09 in 1.0 mi Calm Calm - N/A   Unknown
5:33 AM 51.4 °F 49.6 °F 94% 30.10 in 1.0 mi Calm Calm - N/A   Unknown
5:54 AM 51.6 °F 49.8 °F 94% 30.10 in 3.0 mi Calm Calm - N/A   Clear
6:14 AM 52.7 °F 51.1 °F 94% 30.10 in 5.0 mi Calm Calm - N/A   Clear
6:33 AM 51.8 °F 50.0 °F 94% 30.10 in 0.2 mi Calm Calm - N/A   Unknown
6:54 AM 51.1 °F 49.5 °F 94% 30.09 in 1.2 mi Calm Calm - N/A   Unknown
7:14 AM 52.9 °F 51.3 °F 94% 30.10 in 5.0 mi Calm Calm - N/A   Clear
7:33 AM 54.9 °F 53.2 °F 94% 30.11 in 7.0 mi Calm Calm - N/A   Clear
7:54 AM 56.8 °F 55.2 °F 94% 30.10 in 10.0 mi Calm Calm - N/A   Clear
8:14 AM 59.7 °F 58.1 °F 94% 30.11 in 10.0 mi Calm Calm - N/A   Clear
8:33 AM 61.7 °F 56.5 °F 83% 30.11 in 10.0 mi Calm Calm - N/A   Clear
8:54 AM 63.5 °F 56.5 °F 78% 30.11 in 10.0 mi Calm Calm - N/A   Clear
9:14 AM 65.1 °F 57.2 °F 75% 30.12 in 10.0 mi Calm Calm - N/A   Clear
9:33 AM 67.1 °F 56.3 °F 68% 30.12 in 10.0 mi Calm Calm - N/A   Clear
9:54 AM 68.9 °F 56.1 °F 64% 30.12 in 10.0 mi Calm Calm - N/A   Clear
10:14 AM 69.3 °F 55.4 °F 61% 30.12 in 10.0 mi Calm Calm - N/A   Clear
10:33 AM 70.3 °F 55.8 °F 60% 30.11 in 10.0 mi Calm Calm - N/A   Clear
10:54 AM 71.6 °F 56.3 °F 58% 30.11 in 10.0 mi SW 4.6 mph - N/A   Clear
11:14 AM 72.1 °F 55.9 °F 57% 30.11 in 10.0 mi SSW 4.6 mph - N/A   Clear
11:33 AM 72.1 °F 55.8 °F 56% 30.11 in 10.0 mi South 6.9 mph - N/A   Clear
11:54 AM 73.9 °F 57.2 °F 56% 30.11 in 10.0 mi SSW 4.6 mph - N/A   Clear
12:14 PM 74.3 °F 53.8 °F 49% 30.11 in 10.0 mi SW 3.5 mph - N/A   Scattered Clouds
12:33 PM 72.9 °F 55.9 °F 55% 30.10 in 10.0 mi WSW 6.9 mph - N/A   Scattered Clouds
12:54 PM 75.2 °F 54.9 °F 49% 30.09 in 10.0 mi SW 8.1 mph - N/A   Clear
1:14 PM 74.1 °F 55.6 °F 52% 30.09 in 10.0 mi SW 5.8 mph - N/A   Scattered Clouds
1:33 PM 75.7 °F 56.7 °F 51% 30.09 in 10.0 mi SSW 6.9 mph - N/A   Scattered Clouds
1:54 PM 75.0 °F 54.5 °F 49% 30.08 in 10.0 mi South 8.1 mph - N/A   Scattered Clouds
2:14 PM 75.4 °F 56.1 °F 51% 30.07 in 10.0 mi SSW 9.2 mph - N/A   Scattered Clouds
2:33 PM 75.7 °F 54.5 °F 48% 30.07 in 10.0 mi South 6.9 mph - N/A   Scattered Clouds
2:54 PM 76.1 °F 56.5 °F 50% 30.06 in 10.0 mi Calm Calm - N/A   Scattered Clouds
3:13 PM 76.6 °F 54.7 °F 46% 30.06 in 10.0 mi SW 9.2 mph - N/A   Scattered Clouds
3:33 PM 76.5 °F 54.3 °F 46% 30.06 in 10.0 mi SSW 10.4 mph - N/A   Scattered Clouds
3:54 PM 77.0 °F 55.8 °F 48% 30.05 in 10.0 mi South 10.4 mph - N/A   Scattered Clouds
4:13 PM 76.8 °F 56.1 °F 49% 30.03 in 10.0 mi SSW 9.2 mph - N/A   Scattered Clouds
4:33 PM 77.0 °F 55.4 °F 47% 30.03 in 10.0 mi SSW 9.2 mph - N/A   Clear
4:54 PM 76.3 °F 55.0 °F 48% 30.03 in 10.0 mi SSW 6.9 mph - N/A   Clear
5:14 PM 77.0 °F 57.4 °F 51% 30.03 in 10.0 mi WSW 8.1 mph - N/A   Scattered Clouds
5:33 PM 76.3 °F 56.1 °F 50% 30.02 in 10.0 mi SW 6.9 mph - N/A   Scattered Clouds
5:54 PM 76.6 °F 56.3 °F 49% 30.02 in 10.0 mi SSW 8.1 mph - N/A   Clear
6:14 PM 75.7 °F 55.9 °F 50% 30.01 in 10.0 mi SW 8.1 mph - N/A   Scattered Clouds
6:33 PM 75.0 °F 56.8 °F 53% 30.01 in 10.0 mi SW 9.2 mph - N/A   Scattered Clouds
6:54 PM 74.5 °F 56.3 °F 53% 30.01 in 10.0 mi SW 8.1 mph - N/A   Clear
7:14 PM 73.6 °F 55.8 °F 54% 30.01 in 10.0 mi SW 10.4 mph - N/A   Clear
7:33 PM 72.5 °F 56.7 °F 57% 30.01 in 10.0 mi SW 5.8 mph - N/A   Clear
7:54 PM 70.5 °F 57.6 °F 63% 30.01 in 10.0 mi SW 4.6 mph - N/A   Clear
8:14 PM 68.9 °F 58.1 °F 68% 30.01 in 10.0 mi SSW 4.6 mph - N/A   Scattered Clouds
8:33 PM 68.0 °F 58.5 °F 71% 30.01 in 10.0 mi Calm Calm - N/A   Clear
8:54 PM 64.8 °F 59.4 °F 83% 30.01 in 10.0 mi South 3.5 mph - N/A   Clear
9:14 PM 64.2 °F 59.0 °F 83% 30.00 in 10.0 mi Calm Calm - N/A   Clear
9:33 PM 63.7 °F 59.2 °F 85% 30.01 in 7.0 mi Calm Calm - N/A   Clear
9:54 PM 63.7 °F 59.2 °F 85% 30.00 in 10.0 mi Calm Calm - N/A   Scattered Clouds
10:14 PM 63.5 °F 59.4 °F 86% 30.00 in 10.0 mi Calm Calm - N/A   Scattered Clouds
10:33 PM 62.8 °F 58.8 °F 87% 30.00 in 10.0 mi Calm Calm - N/A   Clear
10:54 PM 63.1 °F 59.2 °F 87% 30.00 in 10.0 mi Calm Calm - N/A   Scattered Clouds
11:14 PM 64.8 °F 58.8 °F 81% 30.00 in 10.0 mi SSW 3.5 mph - N/A   Scattered Clouds
11:34 PM 66.0 °F 59.0 °F 78% 29.99 in 10.0 mi SSW 5.8 mph - N/A   Clear
11:53 PM 65.3 °F 59.0 °F 80% 29.99 in 10.0 mi SW 4.6 mph - N/A   Clear